When you browse on this site, cookies collect data to enhance your experience and personalize the content and advertising you see.
Visit our Privacy Policy to learn more. By continuing to use the site, you agree to this use of cookies and data.
  • In Austria
  • List of Countries
  • For 7 days
  • Water Temperature
  • Satellite Maps
  • Weather Map
  • News
  • Weather Widgets
  • user-avatar
    Login

    Hourly Weather Sherpur

    Today, 26 June, Wednesday

    Time Temperature Precipitation Wind Pressure Humidity
    00:00 +20°C° 0 mm 2 mps 610 mmHg 32%
    01:00 +20°C° 0 mm 1 mps 609 mmHg 34%
    02:00 +19°C° 0 mm 1 mps 609 mmHg 36%
    03:00 +19°C° 0 mm 1 mps 609 mmHg 37%
    04:00 +18°C° 0 mm 1 mps 608 mmHg 38%
    05:00 +18°C° 0 mm 1 mps 608 mmHg 38%
    06:00 +19°C° 0 mm 1 mps 609 mmHg 33%
    07:00 +21°C° 0 mm 1 mps 610 mmHg 29%
    08:00 +23°C° 0 mm 1 mps 611 mmHg 24%
    09:00 +24°C° 0 mm 1 mps 611 mmHg 21%
    10:00 +26°C° 0 mm 1 mps 611 mmHg 17%
    11:00 +27°C° 0 mm 1 mps 611 mmHg 14%
    12:00 +28°C° 0 mm 1 mps 611 mmHg 13%
    13:00 +29°C° 0 mm 2 mps 611 mmHg 11%
    14:00 +30°C° 0 mm 2 mps 611 mmHg 9%
    15:00 +31°C° 0 mm 3 mps 611 mmHg 10%
    16:00 +31°C° 0 mm 3 mps 611 mmHg 10%
    17:00 +32°C° 0 mm 4 mps 610 mmHg 10%
    18:00 +29°C° 0 mm 4 mps 610 mmHg 13%
    19:00 +28°C° 0 mm 4 mps 610 mmHg 16%
    20:00 +26°C° 0 mm 4 mps 609 mmHg 18%
    21:00 +25°C° 0 mm 3 mps 609 mmHg 20%
    22:00 +24°C° 0 mm 2 mps 609 mmHg 22%
    23:00 +23°C° 0 mm 2 mps 608 mmHg 24%

    Tomorrow, 27 June, Thursday

    Time Temperature Precipitation Wind Pressure Humidity
    00:00 +21°C° 0 mm 2 mps 608 mmHg 25%
    01:00 +20°C° 0 mm 2 mps 607 mmHg 27%
    02:00 +20°C° 0 mm 1 mps 607 mmHg 28%
    03:00 +20°C° 0 mm 1 mps 607 mmHg 29%
    04:00 +19°C° 0 mm 1 mps 606 mmHg 29%
    05:00 +19°C° 0 mm 1 mps 606 mmHg 30%
    06:00 +20°C° 0 mm 1 mps 607 mmHg 27%
    07:00 +22°C° 0 mm 1 mps 608 mmHg 23%
    08:00 +24°C° 0 mm 1 mps 609 mmHg 20%
    09:00 +25°C° 0 mm 2 mps 609 mmHg 18%
    10:00 +27°C° 0 mm 2 mps 609 mmHg 16%
    11:00 +28°C° 0 mm 3 mps 610 mmHg 13%
    12:00 +29°C° 0 mm 3 mps 610 mmHg 12%
    13:00 +30°C° 0 mm 3 mps 610 mmHg 12%
    14:00 +31°C° 0 mm 3 mps 610 mmHg 11%
    15:00 +32°C° 0 mm 4 mps 609 mmHg 10%
    16:00 +32°C° 0 mm 5 mps 609 mmHg 10%
    17:00 +32°C° 0 mm 6 mps 609 mmHg 10%
    18:00 +29°C° 0 mm 6 mps 608 mmHg 11%
    19:00 +27°C° 0 mm 5 mps 608 mmHg 13%
    20:00 +26°C° 0 mm 5 mps 607 mmHg 14%
    21:00 +25°C° 0 mm 4 mps 607 mmHg 15%
    22:00 +24°C° 0 mm 3 mps 607 mmHg 17%
    23:00 +21°C° 0 mm 2 mps 607 mmHg 18%

    Day after tomorrow, 28 June, Friday

    Time Temperature Precipitation Wind Pressure Humidity
    00:00 +21°C° 0 mm 2 mps 607 mmHg 20%
    01:00 +20°C° 0 mm 2 mps 606 mmHg 22%
    02:00 +20°C° 0 mm 1 mps 606 mmHg 23%
    03:00 +19°C° 0 mm 1 mps 605 mmHg 24%
    04:00 +19°C° 0 mm 1 mps 605 mmHg 25%
    05:00 +18°C° 0 mm 1 mps 605 mmHg 26%
    06:00 +20°C° 0 mm 1 mps 606 mmHg 23%
    07:00 +22°C° 0 mm 1 mps 607 mmHg 20%
    08:00 +24°C° 0 mm 1 mps 608 mmHg 17%
    09:00 +26°C° 0 mm 1 mps 609 mmHg 16%
    10:00 +27°C° 0 mm 2 mps 609 mmHg 14%
    11:00 +28°C° 0 mm 2 mps 609 mmHg 12%
    12:00 +29°C° 0 mm 2 mps 609 mmHg 12%
    13:00 +30°C° 0 mm 2 mps 609 mmHg 11%
    14:00 +31°C° 0 mm 3 mps 609 mmHg 10%
    15:00 +31°C° 0 mm 3 mps 609 mmHg 10%
    16:00 +33°C° 0 mm 3 mps 609 mmHg 10%
    17:00 +33°C° 0 mm 3 mps 609 mmHg 10%
    18:00 +30°C° 0 mm 4 mps 608 mmHg 12%
    19:00 +28°C° 0 mm 4 mps 608 mmHg 14%
    20:00 +27°C° 0 mm 4 mps 608 mmHg 15%
    21:00 +26°C° 0 mm 3 mps 608 mmHg 16%
    22:00 +25°C° 0 mm 3 mps 608 mmHg 18%
    23:00 +24°C° 0 mm 2 mps 608 mmHg 19%

    29 June, Saturday

    Time Temperature Precipitation Wind Pressure Humidity
    00:00 +23°C° 0 mm 2 mps 607 mmHg 21%
    01:00 +22°C° 0 mm 1 mps 607 mmHg 23%
    02:00 +21°C° 0 mm 1 mps 606 mmHg 24%
    03:00 +21°C° 0 mm 1 mps 606 mmHg 25%
    04:00 +20°C° 0 mm 1 mps 606 mmHg 26%
    05:00 +20°C° 0 mm 1 mps 606 mmHg 26%
    06:00 +22°C° 0 mm 1 mps 606 mmHg 24%
    07:00 +24°C° 0 mm 1 mps 607 mmHg 21%
    08:00 +26°C° 0 mm 1 mps 608 mmHg 18%
    09:00 +27°C° 0 mm 1 mps 609 mmHg 17%
    10:00 +28°C° 0 mm 1 mps 609 mmHg 15%
    11:00 +30°C° 0 mm 1 mps 609 mmHg 14%
    12:00 +31°C° 0 mm 1 mps 609 mmHg 13%
    13:00 +32°C° 0 mm 1 mps 609 mmHg 13%
    14:00 +33°C° 0 mm 1 mps 609 mmHg 12%
    15:00 +34°C° 0 mm 3 mps 609 mmHg 13%
    16:00 +33°C° 0 mm 5 mps 609 mmHg 14%
    17:00 +33°C° 0 mm 6 mps 608 mmHg 16%
    18:00 +32°C° 0 mm 6 mps 608 mmHg 19%
    19:00 +29°C° 0 mm 5 mps 608 mmHg 22%
    20:00 +28°C° 0 mm 4 mps 608 mmHg 25%
    21:00 +27°C° 0 mm 3 mps 608 mmHg 27%
    22:00 +26°C° 0 mm 3 mps 608 mmHg 29%
    23:00 +25°C° 0 mm 2 mps 608 mmHg 30%

    30 June, Sunday

    Time Temperature Precipitation Wind Pressure Humidity
    00:00 +24°C° 0 mm 2 mps 607 mmHg 32%
    01:00 +23°C° 0 mm 1 mps 607 mmHg 34%
    02:00 +23°C° 0 mm 1 mps 606 mmHg 35%
    03:00 +22°C° 0 mm 1 mps 606 mmHg 36%
    04:00 +22°C° 0 mm 1 mps 606 mmHg 37%
    05:00 +21°C° 0 mm 1 mps 605 mmHg 38%
    06:00 +23°C° 0 mm 1 mps 606 mmHg 34%
    07:00 +25°C° 0 mm 1 mps 607 mmHg 30%
    08:00 +26°C° 0 mm 1 mps 608 mmHg 26%
    09:00 +28°C° 0 mm 1 mps 609 mmHg 24%
    10:00 +29°C° 0 mm 1 mps 609 mmHg 21%
    11:00 +31°C° 0 mm 2 mps 609 mmHg 19%
    12:00 +32°C° 0 mm 2 mps 609 mmHg 17%
    13:00 +34°C° 0 mm 2 mps 610 mmHg 16%
    14:00 +35°C° 0 mm 2 mps 610 mmHg 14%
    15:00 +35°C° 0 mm 3 mps 610 mmHg 14%
    16:00 +35°C° 0 mm 3 mps 609 mmHg 13%
    17:00 +35°C° 0 mm 4 mps 609 mmHg 13%
    18:00 +34°C° 0 mm 4 mps 609 mmHg 15%
    19:00 +32°C° 0 mm 4 mps 609 mmHg 17%
    20:00 +29°C° 0 mm 4 mps 608 mmHg 18%
    21:00 +28°C° 0 mm 3 mps 608 mmHg 20%
    22:00 +26°C° 0 mm 3 mps 608 mmHg 22%
    23:00 +25°C° 0 mm 2 mps 608 mmHg 24%

    1 July, Monday

    Time Temperature Precipitation Wind Pressure Humidity
    00:00 +24°C° 0 mm 2 mps 608 mmHg 25%
    01:00 +23°C° 0 mm 2 mps 607 mmHg 26%
    02:00 +23°C° 0 mm 1 mps 607 mmHg 27%
    03:00 +22°C° 0 mm 1 mps 607 mmHg 28%
    04:00 +21°C° 0 mm 1 mps 606 mmHg 28%
    05:00 +21°C° 0 mm 1 mps 606 mmHg 29%
    06:00 +23°C° 0 mm 1 mps 607 mmHg 25%
    07:00 +25°C° 0 mm 1 mps 608 mmHg 22%
    08:00 +27°C° 0 mm 1 mps 609 mmHg 18%
    09:00 +28°C° 0 mm 1 mps 610 mmHg 16%
    10:00 +30°C° 0 mm 2 mps 610 mmHg 14%
    11:00 +32°C° 0 mm 2 mps 610 mmHg 11%
    12:00 +34°C° 0 mm 3 mps 610 mmHg 10%
    13:00 +35°C° 0 mm 4 mps 610 mmHg 9%
    14:00 +36°C° 0 mm 5 mps 610 mmHg 8%
    15:00 +36°C° 0 mm 6 mps 610 mmHg 8%
    16:00 +35°C° 0 mm 7 mps 610 mmHg 8%
    17:00 +35°C° 0 mm 9 mps 610 mmHg 9%
    18:00 +33°C° 0 mm 7 mps 609 mmHg 10%
    19:00 +32°C° 0 mm 6 mps 609 mmHg 12%
    20:00 +29°C° 0 mm 5 mps 609 mmHg 13%
    21:00 +27°C° 0 mm 4 mps 609 mmHg 15%
    22:00 +26°C° 0 mm 3 mps 609 mmHg 17%
    23:00 +25°C° 0 mm 3 mps 609 mmHg 18%
    Show more